Location: Gensac
(43.2177°N, 1.1313°E)
Time: 17:37:54
(UTC+00:00)

IRIDIUM 104 - Pass Details

Date: 08 December 2025
Orbit: 776 x 779 km, 86.4° (Epoch: 22 January)

Event Time Altitude Azimuth Distance (km) Brightness Sun altitude
Rises 06:08:08 0° 182° (S) 3,246 7.8 -11.8°
Reaches altitude 10° 06:10:28 10° 183° (S) 2,324 7.0 -11.4°
Maximum altitude 06:15:41 85° 272° (W) 788 4.3 -10.5°
Drops below altitude 10° 06:20:57 10° 2° (N) 2,342 6.6 -9.6°
Sets 06:23:19 0° 3° (N) 3,274 7.4 -9.2°
